Location: Bothwell
(41.7170°N, 112.2589°W)
Time: 01:43:17
(UTC+00:00)

Altair - All Passes

Search period start: 12 May 2026 00:00
Search period end: 22 May 2026 00:00
Orbit: 1501 x 1682 km, 47.2° (Epoch: 11 May)

Date Brightness Start Highest point End Pass type
(mag) Time Alt. Az. Time Alt. Az. Time Alt. Az.
12 May - 11:57:36 10° SSW 12:06:41 43° SE 12:16:00 10° ENE daylight
12 May - 14:00:58 10° WSW 14:11:03 85° NNW 14:21:18 10° ENE daylight
12 May - 16:06:41 10° W 16:16:45 64° N 16:26:51 10° E daylight
12 May - 18:12:11 10° WNW 18:22:28 86° NNE 18:32:31 10° ESE daylight
12 May - 20:17:32 10° WNW 20:26:46 42° SW 20:35:46 10° SSE daylight
13 May - 11:32:38 10° SSW 11:41:31 40° SE 11:50:37 10° ENE visible
13 May - 13:35:42 10° WSW 13:45:45 88° NNW 13:56:00 10° ENE daylight
13 May - 15:41:19 10° W 15:51:24 64° N 16:01:29 10° E daylight
13 May - 17:46:53 10° WNW 17:57:09 83° NNE 18:07:14 10° ESE daylight
13 May - 19:52:10 10° WNW 20:01:35 45° SW 20:10:47 10° SSE daylight
13 May - 22:03:19 10° WSW 22:04:21 10° WSW 22:05:24 10° SW daylight
14 May - 11:07:43 10° SSW 11:16:21 36° SE 11:25:13 10° ENE visible
14 May - 13:10:27 10° WSW 13:20:27 88° SSE 13:30:42 10° ENE daylight
14 May - 15:15:58 10° W 15:26:02 65° N 15:36:09 10° ENE daylight
14 May - 17:21:36 10° WNW 17:31:50 80° NNE 17:41:57 10° ESE daylight
14 May - 19:26:49 10° WNW 19:36:24 49° SW 19:45:45 10° SSE daylight
14 May - 21:35:55 10° W 21:39:17 12° WSW 21:42:38 10° SW daylight
15 May - 10:42:50 10° S 10:51:12 33° SE 10:59:48 10° ENE visible
15 May - 12:45:13 10° WSW 12:55:10 85° SSE 13:05:23 10° ENE daylight
15 May - 14:50:38 10° W 15:00:40 65° N 15:10:48 10° ENE daylight
15 May - 16:56:17 10° WNW 17:06:31 78° NNE 17:16:38 10° ESE daylight
15 May - 19:01:29 10° WNW 19:11:11 53° SW 19:20:42 10° SSE daylight
15 May - 21:09:37 10° W 21:14:12 14° WSW 21:18:45 10° SSW daylight
16 May - 10:17:58 10° S 10:26:04 30° SE 10:34:21 10° ENE visible
16 May - 12:20:00 10° SW 12:29:53 81° SSE 12:40:05 10° ENE daylight
16 May - 14:25:17 10° W 14:35:18 66° N 14:45:27 10° ENE daylight
16 May - 16:30:58 10° WNW 16:41:11 75° NNE 16:51:19 10° ESE daylight
16 May - 18:36:09 10° WNW 18:45:59 56° SW 18:55:38 10° SE daylight
16 May - 20:43:39 10° W 20:49:07 16° WSW 20:54:32 10° SSW daylight
17 May - 09:53:11 10° S 10:00:56 28° SE 10:08:52 10° ENE visible
17 May - 11:54:48 10° SW 12:04:38 77° SSE 12:14:46 10° ENE daylight
17 May - 13:59:56 10° W 14:09:56 67° N 14:20:06 10° ENE daylight
17 May - 16:05:39 10° WNW 16:15:50 73° NNE 16:26:00 10° E daylight
17 May - 18:10:50 10° WNW 18:20:45 60° SW 18:30:31 10° SE daylight
17 May - 20:17:50 10° W 20:24:01 18° SW 20:30:08 10° SSW daylight
18 May - 09:28:27 10° S 09:35:49 25° SE 09:43:21 10° ENE visible
18 May - 11:29:37 10° SW 11:39:23 73° SSE 11:49:28 10° ENE visible
18 May - 13:34:36 10° W 13:44:36 68° N 13:54:46 10° ENE daylight
18 May - 15:40:21 10° WNW 15:50:30 71° NNE 16:00:39 10° E daylight
18 May - 17:45:31 10° WNW 17:55:32 64° SW 18:05:23 10° SE daylight
18 May - 19:52:09 10° W 19:58:55 21° SW 20:05:37 10° SSW daylight
19 May - 09:03:46 10° S 09:10:42 23° SE 09:17:47 10° E visible
19 May - 11:04:28 10° SW 11:14:08 69° SE 11:24:09 10° ENE visible
19 May - 13:09:17 10° W 13:19:14 69° NNW 13:29:25 10° ENE daylight
19 May - 15:15:01 10° WNW 15:25:09 69° NNE 15:35:18 10° E daylight
19 May - 17:20:13 10° WNW 17:30:17 69° SW 17:40:14 10° SE daylight
19 May - 19:26:31 10° W 19:33:48 23° SW 19:41:00 10° S daylight
20 May - 08:39:11 10° SSE 08:45:36 20° SE 08:52:09 10° E visible
20 May - 10:39:20 10° SW 10:48:54 64° SE 10:58:50 10° ENE visible
20 May - 12:43:57 10° W 12:53:53 71° NNW 13:04:05 10° ENE daylight
20 May - 14:49:43 10° WNW 14:59:48 68° N 15:09:56 10° E daylight
20 May - 16:54:55 10° WNW 17:05:02 73° SSW 17:15:04 10° SE daylight
20 May - 19:00:58 10° WNW 19:08:40 25° SW 19:16:17 10° S daylight
21 May - 08:14:41 10° SSE 08:20:31 18° ESE 08:26:26 10° E visible
21 May - 10:14:13 10° SW 10:23:41 60° SE 10:33:30 10° ENE visible
21 May - 12:18:39 10° W 12:28:33 73° NNW 12:38:45 10° ENE daylight
21 May - 14:24:24 10° WNW 14:34:26 67° N 14:44:35 10° E daylight
21 May - 16:29:37 10° WNW 16:39:46 77° SSW 16:49:51 10° SE daylight
21 May - 18:35:27 10° WNW 18:43:32 28° SW 18:51:32 10° S daylight
